Weather History for KSGF - April, 2012

Change the Weather History Date:

Wednesday, April 11, 2012

  Actual Average Record
Temperature  
Mean Temperature 52 °F 54 °F  
Max Temperature 62 °F 66 °F 84 °F (1972)
Min Temperature 42 °F 43 °F 23 °F (1989)
Degree Days  
Heating Degree Days 13 11  
Month to date heating degree days 76 140  
Since 1 July heating degree days 3522 4314  
Cooling Degree Days 0 1  
Month to date cooling degree days 20 4  
Year to date cooling degree days 54 7  
Growing Degree Days 2 (Base 50)    
Moisture  
Dew Point 28 °F    
Average Humidity 45    
Maximum Humidity 65    
Minimum Humidity 25    
Precipitation  
Precipitation 0.00 in 0.14 in 2.48 in (1979)
Month to date precipitation 0.29 1.41  
Year to date precipitation 6.34 10.02  
Snow  
Snow 0.00 in - - ()
Month to date snowfall 0.0  
Since 1 July snowfall 2.8  
Snow Depth 0.00 in    
Sea Level Pressure  
Sea Level Pressure 30.22 in    
Wind  
Wind Speed 7 mph (NE)    
Max Wind Speed 15 mph    
Max Gust Speed 21 mph    
Visibility 10 miles    
Events      
T = Trace of Precipitation, MM = Missing Value Source: NWS Daily Summary

Daily Weather History Graph

Daily Weather History Graph

Search for Another Location

Airport or City:

Trip Planner

Search our weather history database for the weather conditions in past years. The results will help you decide how hot, cold, wet, or windy it might be!

Date:

Astronomy

Apr. 11, 2012 Rise Set
Actual Time 6:43 AM CDT 7:45 PM CDT
Civil Twilight 6:17 AM CDT 8:12 PM CDT
Nautical Twilight 5:45 AM CDT 8:44 PM CDT
Astronomical Twilight 5:12 AM CDT 9:17 PM CDT
Moon 12:36 AM CDT (4/11) 10:37 AM CDT (4/11)
Length of Visible Light 13h 55m
Length of Day
13h 01m
Waning Gibbous, 69% of the Moon is Illuminated
Apr 11
Waning Gibbous
Apr 13
Last Quarter
Apr 21
New
Apr 29
First Quarter
May 5
Full

Hourly Weather History & Observations

Time (CDT) Temp. Windchill Dew Point Humidity Pressure Visibility Wind Dir Wind Speed Gust Speed Precip Events Conditions
12:52 AM 48.9 °F - 33.1 °F 54% 30.18 in 10.0 mi NE 6.9 mph - N/A   Clear
1:52 AM 48.0 °F - 34.0 °F 58% 30.19 in 10.0 mi Calm Calm - N/A   Clear
2:52 AM 45.0 °F 41.8 °F 33.1 °F 63% 30.18 in 10.0 mi NNE 5.8 mph - N/A   Clear
3:52 AM 44.1 °F 40.1 °F 33.1 °F 65% 30.19 in 10.0 mi NNE 6.9 mph - N/A   Clear
4:52 AM 44.1 °F 40.1 °F 32.0 °F 63% 30.19 in 10.0 mi NE 6.9 mph - N/A   Clear
5:52 AM 44.1 °F 38.6 °F 30.0 °F 58% 30.22 in 10.0 mi NE 10.4 mph - N/A   Clear
6:52 AM 42.1 °F 36.1 °F 27.0 °F 55% 30.25 in 10.0 mi NE 10.4 mph - N/A   Overcast
7:52 AM 42.1 °F 37.7 °F 27.0 °F 55% 30.27 in 10.0 mi NE 6.9 mph - N/A   Partly Cloudy
8:52 AM 46.0 °F 41.4 °F 25.0 °F 44% 30.29 in 10.0 mi East 9.2 mph - N/A   Overcast
9:52 AM 48.0 °F - 25.0 °F 41% 30.30 in 10.0 mi East 9.2 mph - N/A   Overcast
10:52 AM 52.0 °F - 26.1 °F 37% 30.30 in 10.0 mi NE 6.9 mph - N/A   Clear
11:52 AM 55.0 °F - 25.0 °F 31% 30.30 in 10.0 mi NE 6.9 mph - N/A   Clear
12:52 PM 57.0 °F - 28.0 °F 33% 30.27 in 10.0 mi Calm Calm - N/A   Clear
1:52 PM 60.1 °F - 28.9 °F 31% 30.25 in 10.0 mi North 8.1 mph - N/A   Clear
2:52 PM 61.0 °F - 28.9 °F 30% 30.23 in 10.0 mi North 10.4 mph - N/A   Clear
3:52 PM 60.1 °F - 25.0 °F 26% 30.22 in 10.0 mi NE 4.6 mph - N/A   Clear
4:52 PM 60.8 °F - 28.4 °F 29% 30.21 in 10.0 mi NNE 10.4 mph - N/A   Clear
5:52 PM 60.1 °F - 26.1 °F 27% 30.20 in 10.0 mi NE 8.1 mph - N/A   Clear
6:52 PM 57.0 °F - 27.0 °F 32% 30.19 in 10.0 mi NNE 9.2 mph - N/A   Clear
7:52 PM 54.0 °F - 27.0 °F 35% 30.18 in 10.0 mi NE 4.6 mph - N/A   Clear
8:52 PM 52.0 °F - 25.0 °F 35% 30.19 in 10.0 mi NE 5.8 mph - N/A   Clear
9:52 PM 50.0 °F - 25.0 °F 38% 30.20 in 10.0 mi ENE 8.1 mph - N/A   Clear
10:52 PM 46.9 °F - 26.1 °F 44% 30.19 in 10.0 mi East 8.1 mph - N/A   Clear
11:52 PM 46.9 °F - 26.1 °F 44% 30.18 in 10.0 mi East 9.2 mph - N/A   Clear